| time (UTC) | temp F | wind direction | speed knots | gust knots | rain 1hr in | rain 24hr in | rain mn in | humidity % | barometer mb |
| 20260506193536 | 80 | 190 | 6.1 | 13.9 | 0.00 | 0.00 | 0.00 | 64 | 1013.0 |
| 20260506193037 | 80 | 206 | 4.3 | 10.4 | 0.00 | 0.00 | 0.00 | 65 | 1013.1 |
| 20260506192532 | 79 | 235 | 3.5 | 9.6 | 0.00 | 0.00 | 0.00 | 65 | 1013.2 |
| 20260506192032 | 80 | 213 | 5.2 | 10.4 | 0.00 | 0.00 | 0.00 | 65 | 1013.3 |
| 20260506191545 | 79 | 209 | 4.3 | 12.2 | 0.00 | 0.00 | 0.00 | 65 | 1013.3 |
| 20260506191033 | 79 | 214 | 5.2 | 12.2 | 0.00 | 0.00 | 0.00 | 66 | 1013.4 |
| 20260506190535 | 78 | 202 | 3.5 | 8.7 | 0.00 | 0.00 | 0.00 | 67 | 1013.6 |
| 20260506190044 | 78 | 209 | 3.5 | 7.0 | 0.00 | 0.00 | 0.00 | 67 | 1013.8 |
| 20260506185531 | 78 | 202 | 3.5 | 9.6 | 0.00 | 0.00 | 0.00 | 67 | 1013.8 |
| 20260506185030 | 78 | 205 | 3.5 | 12.2 | 0.00 | 0.00 | 0.00 | 66 | 1013.8 |
| 20260506184539 | 79 | 205 | 6.1 | 12.2 | 0.00 | 0.00 | 0.00 | 65 | 1014.0 |
| 20260506184032 | 79 | 212 | 4.3 | 12.2 | 0.00 | 0.00 | 0.00 | 65 | 1014.0 |
| 20260506183532 | 79 | 177 | 5.2 | 9.6 | 0.00 | 0.00 | 0.00 | 66 | 1014.1 |
| 20260506183038 | 79 | 229 | 1.7 | 9.6 | 0.00 | 0.00 | 0.00 | 66 | 1014.2 |
| 20260506182531 | 79 | 242 | 3.5 | 9.6 | 0.00 | 0.00 | 0.00 | 65 | 1014.1 |
| 20260506182034 | 79 | 195 | 4.3 | 8.7 | 0.00 | 0.00 | 0.00 | 65 | 1014.3 |
| 20260506181546 | 79 | 178 | 4.3 | 8.7 | 0.00 | 0.00 | 0.00 | 64 | 1014.3 |
| 20260506181031 | 80 | 221 | 5.2 | 9.6 | 0.00 | 0.00 | 0.00 | 64 | 1014.3 |
| 20260506180532 | 80 | 219 | 6.1 | 11.3 | 0.00 | 0.00 | 0.00 | 64 | 1014.3 |
| 20260506180050 | 80 | 237 | 6.1 | 13.0 | 0.00 | 0.00 | 0.00 | 63 | 1014.3 |
| 20260506175536 | 80 | 219 | 6.1 | 12.2 | 0.00 | 0.00 | 0.00 | 64 | 1014.2 |
| 20260506175030 | 80 | 210 | 4.3 | 12.2 | 0.00 | 0.00 | 0.00 | 65 | 1014.1 |
| 20260506174540 | 79 | 186 | 6.1 | 15.6 | 0.00 | 0.00 | 0.00 | 65 | 1014.0 |
| 20260506174032 | 79 | 247 | 6.1 | 15.6 | 0.00 | 0.00 | 0.00 | 65 | 1014.0 |
| 20260506173531 | 79 | 215 | 6.1 | 11.3 | 0.00 | 0.00 | 0.00 | 65 | 1014.1 |
| 20260506173048 | 79 | 214 | 1.7 | 8.7 | 0.00 | 0.00 | 0.00 | 66 | 1014.0 |
| 20260506172531 | 79 | 191 | 5.2 | 8.7 | 0.00 | 0.00 | 0.00 | 65 | 1014.0 |
| 20260506172030 | 79 | 197 | 3.5 | 11.3 | 0.00 | 0.00 | 0.00 | 66 | 1014.0 |
| 20260506171552 | 79 | 211 | 5.2 | 13.9 | 0.00 | 0.00 | 0.00 | 65 | 1014.0 |
| 20260506171035 | 79 | 217 | 7.0 | 13.9 | 0.00 | 0.00 | 0.00 | 65 | 1013.9 |
| 20260506170533 | 79 | 233 | 3.5 | 10.4 | 0.00 | 0.00 | 0.00 | 66 | 1014.0 |
| 20260506170040 | 79 | 207 | 3.5 | 10.4 | 0.00 | 0.00 | 0.00 | 66 | 1014.0 |
| 20260506165534 | 79 | 191 | 2.6 | 10.4 | 0.00 | 0.00 | 0.00 | 67 | 1014.1 |
| 20260506165035 | 78 | 213 | 3.5 | 13.9 | 0.00 | 0.00 | 0.00 | 67 | 1014.1 |
| 20260506164541 | 78 | 226 | 5.2 | 13.9 | 0.00 | 0.00 | 0.00 | 67 | 1014.1 |
| 20260506164034 | 78 | 193 | 7.0 | 13.9 | 0.00 | 0.00 | 0.00 | 67 | 1014.2 |
| 20260506163529 | 78 | 186 | 5.2 | 13.0 | 0.00 | 0.00 | 0.00 | 68 | 1014.2 |
| 20260506163049 | 78 | 213 | 7.0 | 13.0 | 0.00 | 0.00 | 0.00 | 69 | 1014.2 |
| 20260506162532 | 76 | 203 | 4.3 | 11.3 | 0.00 | 0.00 | 0.00 | 71 | 1014.2 |
| 20260506162033 | 75 | 131 | 3.5 | 8.7 | 0.00 | 0.00 | 0.00 | 72 | 1014.1 |
| 20260506161540 | 74 | 199 | 3.5 | 7.8 | 0.00 | 0.00 | 0.00 | 74 | 1014.3 |
| 20260506161031 | 74 | 189 | 3.5 | 9.6 | 0.00 | 0.00 | 0.00 | 75 | 1014.6 |
| 20260506160531 | 73 | 231 | 4.3 | 9.6 | 0.00 | 0.00 | 0.00 | 75 | 1014.7 |
| 20260506160044 | 73 | 215 | 4.3 | 9.6 | 0.00 | 0.00 | 0.00 | 76 | 1014.7 |
| 20260506155531 | 72 | 216 | 5.2 | 9.6 | 0.00 | 0.00 | 0.00 | 77 | 1014.9 |
| 20260506155031 | 71 | 205 | 3.5 | 7.8 | 0.00 | 0.00 | 0.00 | 77 | 1015.1 |
| 20260506154542 | 71 | 226 | 2.6 | 7.0 | 0.00 | 0.00 | 0.00 | 78 | 1015.1 |
| 20260506154032 | 70 | 219 | 2.6 | 7.8 | 0.00 | 0.00 | 0.00 | 79 | 1015.1 |
| 20260506153531 | 70 | 243 | 3.5 | 7.8 | 0.00 | 0.00 | 0.00 | 79 | 1015.1 |
| 20260506153043 | 70 | 244 | 3.5 | 7.8 | 0.00 | 0.00 | 0.00 | 81 | 1015.1 |
| 20260506152532 | 69 | 202 | 1.7 | 5.2 | 0.00 | 0.00 | 0.00 | 81 | 1015.3 |
| 20260506152031 | 69 | 205 | 1.7 | 7.0 | 0.00 | 0.00 | 0.00 | 81 | 1015.4 |
| 20260506151551 | 69 | 205 | 1.7 | 8.7 | 0.00 | 0.00 | 0.00 | 82 | 1015.7 |
| 20260506151032 | 68 | 255 | 3.5 | 8.7 | 0.00 | 0.00 | 0.00 | 81 | 1015.8 |
| 20260506150532 | 68 | 214 | 2.6 | 6.1 | 0.00 | 0.00 | 0.00 | 81 | 1015.3 |
| 20260506150042 | 68 | 207 | 3.5 | 7.8 | 0.00 | 0.00 | 0.00 | 81 | 1015.2 |
| 20260506145533 | 68 | 221 | 3.5 | 9.6 | 0.00 | 0.00 | 0.00 | 81 | 1015.5 |
| 20260506145032 | 69 | 192 | 3.5 | 9.6 | 0.00 | 0.00 | 0.00 | 80 | 1015.6 |
| 20260506144559 | 69 | 220 | 4.3 | 7.8 | 0.00 | 0.00 | 0.00 | 79 | 1015.6 |
| 20260506144033 | 69 | 234 | 3.5 | 7.8 | 0.00 | 0.00 | 0.00 | 79 | 1015.5 |
| 20260506143533 | 69 | 227 | 2.6 | 8.7 | 0.00 | 0.00 | 0.00 | 78 | 1015.3 |
| 20260506143038 | 69 | 236 | 3.5 | 8.7 | 0.00 | 0.00 | 0.00 | 77 | 1015.4 |
| 20260506142531 | 69 | 208 | 2.6 | 12.2 | 0.00 | 0.00 | 0.00 | 77 | 1015.3 |
| 20260506142030 | 69 | 238 | 5.2 | 12.2 | 0.00 | 0.00 | 0.00 | 77 | 1015.3 |
| 20260506141541 | 69 | 250 | 2.6 | 11.3 | 0.00 | 0.00 | 0.00 | 77 | 1015.3 |
| 20260506141034 | 69 | 227 | 4.3 | 11.3 | 0.00 | 0.00 | 0.00 | 77 | 1015.2 |
| 20260506140531 | 69 | 215 | 3.5 | 12.2 | 0.00 | 0.00 | 0.00 | 77 | 1015.2 |
| 20260506140055 | 70 | 204 | 4.3 | 12.2 | 0.00 | 0.00 | 0.00 | 77 | 1015.1 |
| 20260506135531 | 70 | 214 | 4.3 | 11.3 | 0.00 | 0.00 | 0.00 | 77 | 1014.8 |
| 20260506135031 | 70 | 202 | 5.2 | 10.4 | 0.00 | 0.00 | 0.00 | 77 | 1014.7 |
| 20260506134544 | 70 | 207 | 4.3 | 11.3 | 0.00 | 0.00 | 0.00 | 77 | 1014.5 |
| 20260506134031 | 70 | 219 | 4.3 | 11.3 | 0.00 | 0.00 | 0.00 | 77 | 1014.2 |
| 20260506133531 | 69 | 200 | 1.7 | 12.2 | 0.00 | 0.00 | 0.00 | 78 | 1014.3 |
| 20260506133045 | 69 | 223 | 4.3 | 12.2 | 0.00 | 0.00 | 0.00 | 78 | 1014.3 |
| 20260506132530 | 69 | 202 | 5.2 | 11.3 | 0.00 | 0.00 | 0.00 | 78 | 1014.3 |
| 20260506132031 | 69 | 205 | 3.5 | 9.6 | 0.00 | 0.00 | 0.00 | 78 | 1014.2 |
| 20260506131543 | 69 | 187 | 5.2 | 10.4 | 0.00 | 0.00 | 0.00 | 78 | 1014.2 |
| 20260506131031 | 68 | 182 | 5.2 | 10.4 | 0.00 | 0.00 | 0.00 | 78 | 1014.3 |
| 20260506130530 | 68 | 195 | 2.6 | 9.6 | 0.00 | 0.00 | 0.00 | 79 | 1014.2 |
| 20260506130045 | 68 | 203 | 3.5 | 9.6 | 0.00 | 0.00 | 0.00 | 79 | 1014.1 |
| 20260506125531 | 68 | 221 | 3.5 | 9.6 | 0.00 | 0.00 | 0.00 | 79 | 1014.1 |
| 20260506125031 | 68 | 207 | 4.3 | 9.6 | 0.00 | 0.00 | 0.00 | 79 | 1014.1 |
| 20260506124541 | 68 | 213 | 3.5 | 7.8 | 0.00 | 0.00 | 0.00 | 80 | 1014.2 |
| 20260506124028 | 68 | 200 | 1.7 | 7.8 | 0.00 | 0.00 | 0.00 | 80 | 1014.1 |
| 20260506123532 | 67 | 209 | 3.5 | 7.8 | 0.00 | 0.00 | 0.00 | 80 | 1014.1 |
| 20260506123050 | 67 | 0 | 1.7 | 7.0 | 0.00 | 0.00 | 0.00 | 80 | 1014.0 |
| 20260506122532 | 67 | 165 | 2.6 | 7.8 | 0.00 | 0.00 | 0.00 | 80 | 1014.0 |
| 20260506122031 | 67 | 210 | 4.3 | 7.8 | 0.00 | 0.00 | 0.00 | 80 | 1014.0 |
| 20260506121537 | 67 | 225 | 2.6 | 6.1 | 0.00 | 0.00 | 0.00 | 80 | 1014.2 |
| 20260506121033 | 67 | 223 | 2.6 | 6.1 | 0.00 | 0.00 | 0.00 | 80 | 1014.1 |
| 20260506120533 | 67 | 217 | 2.6 | 7.8 | 0.00 | 0.00 | 0.00 | 80 | 1014.1 |
| 20260506120050 | 67 | 224 | 2.6 | 7.8 | 0.00 | 0.00 | 0.00 | 80 | 1013.8 |
| 20260506115532 | 67 | 189 | 2.6 | 7.8 | 0.00 | 0.00 | 0.00 | 80 | 1013.8 |
| 20260506115031 | 67 | 191 | 3.5 | 7.0 | 0.00 | 0.00 | 0.00 | 80 | 1013.9 |
| 20260506114542 | 67 | 196 | 3.5 | 8.7 | 0.00 | 0.00 | 0.00 | 80 | 1014.0 |
| 20260506114031 | 67 | 182 | 3.5 | 8.7 | 0.00 | 0.00 | 0.00 | 80 | 1013.8 |
| 20260506113532 | 67 | 196 | 2.6 | 7.8 | 0.00 | 0.00 | 0.00 | 80 | 1013.9 |
| 20260506113047 | 67 | 204 | 3.5 | 7.8 | 0.00 | 0.00 | 0.00 | 80 | 1013.7 |
| 20260506112530 | 67 | 222 | 2.6 | 7.8 | 0.00 | 0.00 | 0.00 | 80 | 1013.6 |
| 20260506112031 | 67 | 209 | 2.6 | 8.7 | 0.00 | 0.00 | 0.00 | 80 | 1013.4 |
| 20260506111537 | 67 | 211 | 3.5 | 9.6 | 0.00 | 0.00 | 0.00 | 80 | 1013.5 |
| 20260506111033 | 67 | 195 | 3.5 | 9.6 | 0.00 | 0.00 | 0.00 | 80 | 1013.5 |
| 20260506110533 | 67 | 217 | 2.6 | 8.7 | 0.00 | 0.00 | 0.00 | 80 | 1013.5 |
| 20260506110038 | 67 | 211 | 2.6 | 7.0 | 0.00 | 0.00 | 0.00 | 81 | 1013.4 |
| 20260506105530 | 67 | 193 | 2.6 | 6.1 | 0.00 | 0.00 | 0.00 | 80 | 1013.4 |
| 20260506105031 | 67 | 191 | 2.6 | 6.1 | 0.00 | 0.00 | 0.00 | 80 | 1013.5 |
| 20260506104549 | 67 | 211 | 3.5 | 6.1 | 0.00 | 0.00 | 0.00 | 80 | 1013.5 |
| 20260506104032 | 67 | 207 | 1.7 | 7.0 | 0.00 | 0.00 | 0.00 | 80 | 1013.3 |
| 20260506103531 | 67 | 202 | 1.7 | 7.0 | 0.00 | 0.00 | 0.00 | 79 | 1013.2 |
| 20260506103043 | 67 | 251 | 2.6 | 7.0 | 0.00 | 0.00 | 0.00 | 79 | 1013.2 |
| 20260506102529 | 67 | 216 | 3.5 | 7.0 | 0.00 | 0.00 | 0.00 | 79 | 1013.1 |
| 20260506102031 | 67 | 230 | 2.6 | 8.7 | 0.00 | 0.00 | 0.00 | 79 | 1013.0 |
| 20260506101547 | 67 | 232 | 3.5 | 8.7 | 0.00 | 0.00 | 0.00 | 78 | 1013.0 |
| 20260506101028 | 67 | 217 | 4.3 | 9.6 | 0.00 | 0.00 | 0.00 | 78 | 1013.1 |
| 20260506100531 | 67 | 195 | 4.3 | 9.6 | 0.00 | 0.00 | 0.00 | 78 | 1012.9 |
| 20260506100040 | 67 | 194 | 4.3 | 9.6 | 0.00 | 0.00 | 0.00 | 78 | 1012.7 |
| 20260506095528 | 67 | 223 | 4.3 | 8.7 | 0.00 | 0.00 | 0.00 | 77 | 1012.7 |
| 20260506095033 | 67 | 215 | 3.5 | 10.4 | 0.00 | 0.00 | 0.00 | 77 | 1012.7 |
| 20260506094536 | 67 | 182 | 6.1 | 10.4 | 0.00 | 0.00 | 0.00 | 77 | 1012.4 |
| 20260506094031 | 67 | 204 | 4.3 | 8.7 | 0.00 | 0.00 | 0.00 | 76 | 1012.2 |
| 20260506093531 | 67 | 269 | 3.5 | 13.0 | 0.00 | 0.00 | 0.00 | 76 | 1012.3 |
| 20260506093042 | 67 | 159 | 5.2 | 13.0 | 0.00 | 0.00 | 0.00 | 76 | 1012.2 |
| 20260506092532 | 67 | 209 | 5.2 | 13.9 | 0.00 | 0.00 | 0.00 | 75 | 1012.4 |
| 20260506092031 | 67 | 219 | 6.1 | 13.9 | 0.00 | 0.00 | 0.00 | 75 | 1012.3 |
| 20260506091541 | 68 | 219 | 2.6 | 8.7 | 0.00 | 0.00 | 0.00 | 74 | 1012.1 |
| 20260506091031 | 68 | 246 | 4.3 | 8.7 | 0.00 | 0.00 | 0.00 | 74 | 1012.4 |
| 20260506090533 | 68 | 215 | 2.6 | 7.0 | 0.00 | 0.00 | 0.00 | 73 | 1012.4 |
| 20260506090040 | 68 | 220 | 3.5 | 15.6 | 0.00 | 0.00 | 0.00 | 73 | 1012.3 |
| 20260506085531 | 68 | 172 | 6.1 | 15.6 | 0.00 | 0.00 | 0.00 | 73 | 1012.2 |
| 20260506085028 | 68 | 171 | 4.3 | 12.2 | 0.00 | 0.00 | 0.00 | 72 | 1012.3 |
| 20260506084542 | 68 | 198 | 5.2 | 12.2 | 0.00 | 0.00 | 0.00 | 72 | 1012.4 |
| 20260506084031 | 68 | 223 | 2.6 | 10.4 | 0.00 | 0.00 | 0.00 | 71 | 1012.5 |
| 20260506083532 | 68 | 197 | 4.3 | 10.4 | 0.00 | 0.00 | 0.00 | 71 | 1012.4 |
| 20260506083043 | 68 | 188 | 3.5 | 7.8 | 0.00 | 0.00 | 0.00 | 71 | 1012.3 |
| 20260506082531 | 68 | 218 | 2.6 | 7.8 | 0.00 | 0.00 | 0.00 | 70 | 1012.2 |
| 20260506082032 | 68 | 165 | 2.6 | 7.8 | 0.00 | 0.00 | 0.00 | 70 | 1012.3 |
| 20260506081624 | 68 | 189 | 4.3 | 11.3 | 0.00 | 0.00 | 0.00 | 70 | 1012.2 |
| 20260506081542 | 68 | 189 | 4.3 | 11.3 | 0.00 | 0.00 | 0.00 | 70 | 1012.2 |
| 20260506081035 | 68 | 222 | 2.6 | 11.3 | 0.00 | 0.00 | 0.00 | 69 | 1012.2 |
| 20260506080532 | 68 | 210 | 3.5 | 11.3 | 0.00 | 0.00 | 0.00 | 69 | 1012.1 |
| 20260506073529 | 69 | 180 | 4.3 | 7.0 | 0.00 | 0.00 | 0.00 | 68 | 1012.4 |
| 20260506073039 | 69 | 213 | 2.6 | 7.0 | 0.00 | 0.00 | 0.00 | 67 | 1012.4 |
| 20260506072529 | 69 | 173 | 2.6 | 8.7 | 0.00 | 0.00 | 0.00 | 67 | 1012.4 |
| 20260506072028 | 69 | 209 | 2.6 | 10.4 | 0.00 | 0.00 | 0.00 | 66 | 1012.2 |
| 20260506071545 | 69 | 163 | 4.3 | 10.4 | 0.00 | 0.00 | 0.00 | 66 | 1012.4 |
| 20260506071033 | 70 | 206 | 2.6 | 8.7 | 0.00 | 0.00 | 0.00 | 66 | 1012.7 |
| 20260506070531 | 70 | 216 | 3.5 | 7.0 | 0.00 | 0.00 | 0.00 | 65 | 1013.0 |
| 20260506062033 | 71 | 200 | 3.5 | 10.4 | 0.00 | 0.00 | 0.00 | 60 | 1013.4 |
| 20260506061541 | 71 | 225 | 5.2 | 13.0 | 0.00 | 0.00 | 0.00 | 60 | 1013.5 |
| 20260506061029 | 71 | 185 | 4.3 | 13.0 | 0.00 | 0.00 | 0.00 | 60 | 1013.5 |
| 20260506060532 | 71 | 194 | 3.5 | 11.3 | 0.00 | 0.00 | 0.00 | 59 | 1013.5 |
| 20260506051033 | 71 | 190 | 1.7 | 5.2 | 0.00 | 0.00 | 0.00 | 54 | 1013.4 |
| 20260506050532 | 71 | 196 | 0.9 | 4.3 | 0.00 | 0.00 | 0.00 | 54 | 1013.4 |
| 20260506045030 | 71 | 243 | 1.7 | 7.0 | 0.00 | 0.00 | 0.00 | 53 | 1012.9 |
| 20260506044557 | 71 | 145 | 1.7 | 7.0 | 0.00 | 0.00 | 0.00 | 53 | 1012.8 |
| 20260506044029 | 71 | 142 | 1.7 | 6.1 | 0.00 | 0.00 | 0.00 | 53 | 1013.0 |
| 20260506043529 | 71 | 178 | 0.9 | 5.2 | 0.00 | 0.00 | 0.00 | 53 | 1013.3 |
| 20260506043044 | 71 | 153 | 1.7 | 6.1 | 0.00 | 0.00 | 0.00 | 52 | 1013.4 |
| 20260506042531 | 71 | 203 | 1.7 | 6.1 | 0.00 | 0.00 | 0.00 | 52 | 1013.3 |
| 20260506042029 | 71 | 209 | 0.9 | 4.3 | 0.00 | 0.00 | 0.00 | 52 | 1013.4 |
| 20260506041542 | 71 | 163 | 0.9 | 4.3 | 0.00 | 0.00 | 0.00 | 52 | 1013.4 |
| 20260506041028 | 71 | 233 | 1.7 | 4.3 | 0.00 | 0.00 | 0.00 | 52 | 1013.5 |
| 20260506040530 | 71 | 169 | 0.9 | 3.5 | 0.00 | 0.00 | 0.00 | 51 | 1013.3 |
| 20260506040046 | 71 | 170 | 1.7 | 5.2 | 0.00 | 0.00 | 0.00 | 51 | 1013.3 |
| 20260506035532 | 71 | 246 | 1.7 | 5.2 | 0.00 | 0.00 | 0.00 | 50 | 1013.3 |
| 20260506035028 | 71 | 146 | 0.9 | 6.1 | 0.00 | 0.00 | 0.00 | 50 | 1013.3 |
| 20260506034539 | 71 | 163 | 1.7 | 6.1 | 0.00 | 0.00 | 0.00 | 49 | 1013.3 |
| 20260506034031 | 71 | 210 | 0.9 | 5.2 | 0.00 | 0.00 | 0.00 | 49 | 1013.3 |
| 20260506033531 | 71 | 116 | 1.7 | 5.2 | 0.00 | 0.00 | 0.00 | 48 | 1013.3 |
| 20260506033047 | 71 | 132 | 0.9 | 6.1 | 0.00 | 0.00 | 0.00 | 47 | 1013.3 |
| 20260506032531 | 71 | 0 | 1.7 | 6.1 | 0.00 | 0.00 | 0.00 | 47 | 1013.4 |
| 20260506032031 | 71 | 156 | 1.7 | 4.3 | 0.00 | 0.00 | 0.00 | 46 | 1013.3 |
| 20260506031542 | 71 | 133 | 0.0 | 5.2 | 0.00 | 0.00 | 0.00 | 46 | 1013.3 |
| 20260506031030 | 72 | 142 | 1.7 | 6.1 | 0.00 | 0.00 | 0.00 | 45 | 1013.4 |
| 20260506030528 | 72 | 173 | 2.6 | 6.1 | 0.00 | 0.00 | 0.00 | 45 | 1013.3 |
| 20260506030042 | 72 | 170 | 1.7 | 6.1 | 0.00 | 0.00 | 0.00 | 45 | 1013.4 |
| 20260506025530 | 72 | 169 | 1.7 | 6.1 | 0.00 | 0.00 | 0.00 | 45 | 1013.3 |
| 20260506025033 | 72 | 138 | 0.9 | 4.3 | 0.00 | 0.00 | 0.00 | 45 | 1013.3 |
| 20260506024544 | 72 | 180 | 0.9 | 7.0 | 0.00 | 0.00 | 0.00 | 45 | 1013.4 |
| 20260506024029 | 72 | 167 | 1.7 | 7.8 | 0.00 | 0.00 | 0.00 | 45 | 1013.5 |
| 20260506023531 | 72 | 169 | 1.7 | 7.8 | 0.00 | 0.00 | 0.00 | 45 | 1013.4 |
| 20260506023049 | 72 | 0 | 1.7 | 5.2 | 0.00 | 0.00 | 0.00 | 45 | 1013.3 |
| 20260506022528 | 72 | 0 | 0.9 | 6.1 | 0.00 | 0.00 | 0.00 | 45 | 1013.3 |
| 20260506022031 | 72 | 219 | 1.7 | 6.1 | 0.00 | 0.00 | 0.00 | 45 | 1013.2 |
| 20260506021555 | 73 | 150 | 1.7 | 4.3 | 0.00 | 0.00 | 0.00 | 46 | 1013.2 |
| 20260506021029 | 73 | 189 | 0.9 | 3.5 | 0.00 | 0.00 | 0.00 | 45 | 1013.2 |
| 20260506020528 | 73 | 211 | 0.0 | 4.3 | 0.00 | 0.00 | 0.00 | 45 | 1013.2 |
| 20260506020042 | 73 | 215 | 0.9 | 4.3 | 0.00 | 0.00 | 0.00 | 46 | 1013.2 |
| 20260506015532 | 73 | 177 | 0.9 | 3.5 | 0.00 | 0.00 | 0.00 | 45 | 1013.2 |
| 20260506015031 | 73 | 178 | 0.9 | 5.2 | 0.00 | 0.00 | 0.00 | 45 | 1013.1 |
| 20260506014543 | 73 | 177 | 0.0 | 7.8 | 0.00 | 0.00 | 0.00 | 45 | 1013.0 |
| 20260506014030 | 73 | 0 | 0.9 | 7.8 | 0.00 | 0.00 | 0.00 | 45 | 1013.0 |
| 20260506013529 | 73 | 202 | 1.7 | 7.8 | 0.00 | 0.00 | 0.00 | 45 | 1013.1 |
| 20260506013040 | 73 | 203 | 0.9 | 5.2 | 0.00 | 0.00 | 0.00 | 45 | 1013.1 |
| 20260506012531 | 73 | 202 | 0.9 | 5.2 | 0.00 | 0.00 | 0.00 | 45 | 1013.0 |
| 20260506012030 | 73 | 229 | 2.6 | 5.2 | 0.00 | 0.00 | 0.00 | 45 | 1012.9 |
| 20260506011538 | 73 | 191 | 0.9 | 5.2 | 0.00 | 0.00 | 0.00 | 45 | 1012.8 |
| 20260506011030 | 73 | 199 | 0.9 | 5.2 | 0.00 | 0.00 | 0.00 | 44 | 1012.8 |
| 20260506010529 | 73 | 204 | 1.7 | 6.1 | 0.00 | 0.00 | 0.00 | 44 | 1012.8 |
| 20260506010048 | 73 | 219 | 0.9 | 8.7 | 0.00 | 0.00 | 0.00 | 44 | 1012.7 |
| 20260506005528 | 74 | 213 | 2.6 | 8.7 | 0.00 | 0.00 | 0.00 | 44 | 1012.8 |
| 20260506005028 | 74 | 217 | 3.5 | 8.7 | 0.00 | 0.00 | 0.00 | 43 | 1012.9 |
| 20260506004547 | 74 | 196 | 3.5 | 8.7 | 0.00 | 0.00 | 0.00 | 43 | 1012.8 |
| 20260506004028 | 74 | 211 | 2.6 | 8.7 | 0.00 | 0.00 | 0.00 | 42 | 1012.9 |
| 20260506003529 | 74 | 238 | 3.5 | 9.6 | 0.00 | 0.00 | 0.00 | 42 | 1013.0 |
| 20260506003042 | 75 | 213 | 4.3 | 9.6 | 0.00 | 0.00 | 0.00 | 42 | 1012.9 |
| 20260506002528 | 75 | 198 | 2.6 | 7.8 | 0.00 | 0.00 | 0.00 | 42 | 1012.9 |
| 20260506002030 | 75 | 211 | 3.5 | 7.8 | 0.00 | 0.00 | 0.00 | 41 | 1012.8 |
| 20260506001546 | 75 | 207 | 3.5 | 7.0 | 0.00 | 0.00 | 0.00 | 41 | 1012.8 |
| 20260506001029 | 75 | 208 | 2.6 | 6.1 | 0.00 | 0.00 | 0.00 | 41 | 1012.9 |
| 20260506000531 | 75 | 205 | 3.5 | 8.7 | 0.00 | 0.00 | 0.00 | 40 | 1012.9 |
| 20260506000042 | 76 | 225 | 2.6 | 11.3 | 0.00 | 0.00 | 0.00 | 40 | 1012.9 |
| 20260505235528 | 76 | 215 | 4.3 | 11.3 | 0.00 | 0.00 | 0.00 | 40 | 1012.9 |
| 20260505235029 | 76 | 197 | 4.3 | 8.7 | 0.00 | 0.00 | 0.00 | 40 | 1012.8 |
| 20260505234604 | 76 | 212 | 3.5 | 9.6 | 0.00 | 0.00 | 0.00 | 40 | 1012.9 |
| 20260505234030 | 76 | 227 | 3.5 | 9.6 | 0.00 | 0.00 | 0.00 | 40 | 1012.9 |
| 20260505233530 | 76 | 224 | 3.5 | 8.7 | 0.00 | 0.00 | 0.00 | 40 | 1012.9 |
| 20260505233043 | 77 | 202 | 2.6 | 7.8 | 0.00 | 0.00 | 0.00 | 40 | 1012.8 |
| 20260505232528 | 77 | 192 | 1.7 | 7.8 | 0.00 | 0.00 | 0.00 | 40 | 1012.8 |
| 20260505232029 | 77 | 229 | 2.6 | 7.8 | 0.00 | 0.00 | 0.00 | 40 | 1012.8 |
| 20260505231541 | 77 | 215 | 2.6 | 7.8 | 0.00 | 0.00 | 0.00 | 39 | 1012.8 |
| 20260505231030 | 77 | 134 | 0.0 | 4.3 | 0.00 | 0.00 | 0.00 | 40 | 1012.7 |
| 20260505230530 | 77 | 0 | 0.9 | 6.1 | 0.00 | 0.00 | 0.00 | 39 | 1012.6 |
| 20260505230039 | 77 | 189 | 1.7 | 6.1 | 0.00 | 0.00 | 0.00 | 38 | 1012.4 |
| 20260505225528 | 78 | 138 | 2.6 | 7.0 | 0.00 | 0.00 | 0.00 | 38 | 1012.4 |
| 20260505225030 | 78 | 220 | 3.5 | 7.8 | 0.00 | 0.00 | 0.00 | 38 | 1012.7 |
| 20260505224539 | 78 | 217 | 2.6 | 7.8 | 0.00 | 0.00 | 0.00 | 38 | 1012.8 |
| 20260505224033 | 78 | 231 | 2.6 | 7.0 | 0.00 | 0.00 | 0.00 | 38 | 1012.8 |
| 20260505223530 | 77 | 208 | 2.6 | 7.0 | 0.00 | 0.00 | 0.00 | 39 | 1012.8 |
| 20260505223044 | 78 | 105 | 1.7 | 7.0 | 0.00 | 0.00 | 0.00 | 38 | 1012.8 |
| 20260505222530 | 78 | 215 | 2.6 | 7.0 | 0.00 | 0.00 | 0.00 | 39 | 1012.8 |
| 20260505222032 | 78 | 192 | 1.7 | 7.0 | 0.00 | 0.00 | 0.00 | 39 | 1012.7 |
| 20260505221542 | 78 | 229 | 1.7 | 11.3 | 0.00 | 0.00 | 0.00 | 39 | 1012.8 |
| 20260505221032 | 78 | 128 | 2.6 | 11.3 | 0.00 | 0.00 | 0.00 | 38 | 1012.8 |
| 20260505220530 | 78 | 179 | 1.7 | 6.1 | 0.00 | 0.00 | 0.00 | 39 | 1012.8 |
| 20260505220042 | 78 | 215 | 1.7 | 7.0 | 0.00 | 0.00 | 0.00 | 38 | 1012.8 |
| 20260505215530 | 78 | 219 | 4.3 | 8.7 | 0.00 | 0.00 | 0.00 | 38 | 1012.6 |
| 20260505215030 | 79 | 179 | 2.6 | 9.6 | 0.00 | 0.00 | 0.00 | 38 | 1012.7 |
| 20260505214559 | 79 | 219 | 3.5 | 9.6 | 0.00 | 0.00 | 0.00 | 38 | 1012.9 |
| 20260505214030 | 79 | 188 | 3.5 | 10.4 | 0.00 | 0.00 | 0.00 | 38 | 1012.9 |
| 20260505213530 | 79 | 119 | 2.6 | 10.4 | 0.00 | 0.00 | 0.00 | 37 | 1012.9 |
| 20260505213037 | 80 | 99 | 3.5 | 9.6 | 0.00 | 0.00 | 0.00 | 36 | 1012.9 |
| 20260505212531 | 80 | 190 | 3.5 | 9.6 | 0.00 | 0.00 | 0.00 | 37 | 1012.9 |
| 20260505212029 | 80 | 113 | 4.3 | 8.7 | 0.00 | 0.00 | 0.00 | 37 | 1013.1 |
| 20260505211542 | 80 | 132 | 2.6 | 8.7 | 0.00 | 0.00 | 0.00 | 37 | 1013.0 |
| 20260505211030 | 79 | 227 | 3.5 | 12.2 | 0.00 | 0.00 | 0.00 | 36 | 1013.1 |
| 20260505210527 | 79 | 221 | 4.3 | 12.2 | 0.00 | 0.00 | 0.00 | 36 | 1013.1 |
| 20260505210041 | 79 | 194 | 4.3 | 8.7 | 0.00 | 0.00 | 0.00 | 36 | 1013.1 |
| 20260505205528 | 80 | 216 | 1.7 | 10.4 | 0.00 | 0.00 | 0.00 | 37 | 1013.1 |
| 20260505205029 | 80 | 189 | 3.5 | 11.3 | 0.00 | 0.00 | 0.00 | 37 | 1013.2 |
| 20260505204548 | 79 | 253 | 6.1 | 11.3 | 0.00 | 0.00 | 0.00 | 37 | 1013.3 |
| 20260505204031 | 79 | 164 | 2.6 | 9.6 | 0.00 | 0.00 | 0.00 | 37 | 1013.3 |
| 20260505203530 | 79 | 186 | 5.2 | 10.4 | 0.00 | 0.00 | 0.00 | 36 | 1013.3 |
| 20260505203046 | 79 | 191 | 6.1 | 10.4 | 0.00 | 0.00 | 0.00 | 37 | 1013.4 |
| 20260505202530 | 80 | 155 | 4.3 | 10.4 | 0.00 | 0.00 | 0.00 | 38 | 1013.4 |
| 20260505202027 | 79 | 135 | 3.5 | 10.4 | 0.00 | 0.00 | 0.00 | 38 | 1013.4 |
| 20260505201545 | 79 | 169 | 3.5 | 9.6 | 0.00 | 0.00 | 0.00 | 39 | 1013.5 |
| 20260505201028 | 79 | 259 | 3.5 | 7.8 | 0.00 | 0.00 | 0.00 | 37 | 1013.5 |
| 20260505200531 | 79 | 175 | 2.6 | 9.6 | 0.00 | 0.00 | 0.00 | 37 | 1013.6 |
| 20260505200058 | 79 | 255 | 4.3 | 10.4 | 0.00 | 0.00 | 0.00 | 39 | 1013.8 |
| 20260505195530 | 79 | 185 | 2.6 | 10.4 | 0.00 | 0.00 | 0.00 | 38 | 1013.9 |
| 20260505195029 | 79 | 139 | 4.3 | 10.4 | 0.00 | 0.00 | 0.00 | 39 | 1014.0 |
| 20260505194547 | 80 | 149 | 5.2 | 9.6 | 0.00 | 0.00 | 0.00 | 38 | 1014.2 |
| 20260505194031 | 79 | 152 | 4.3 | 9.6 | 0.00 | 0.00 | 0.00 | 37 | 1014.2 |